{"data":{"norad_id":41887,"epoch":"2026-09-19T15:44:18.242880Z","epoch_age_seconds":91094,"freshness":"FRESH","line1":"1 41887U 16078D   26262.65576670  .00022124  00000+0  24814-3 0  9992","line2":"2 41887  34.9401 353.3274 0004858 327.3062  32.7363 15.61646817543467","mean_motion":15.61646817,"eccentricity":0.0004858,"inclination_deg":34.9401,"raan_deg":353.3274,"arg_perigee_deg":327.3062,"mean_anomaly_deg":32.7363,"bstar":0.00024814,"rev_number":54346,"period_min":92.210350274098,"perigee_km":379.61520495964,"apogee_km":386.18422823349,"semimajor_km":6761.0367165966,"source":"CELESTRAK","updated_at":"2026-09-20T09:00:33.218673Z"}}